Location: Newark
(42.3314°N, 83.0458°W)
Time: 16:40:58
(UTC+00:00)

ISS - Visible Passes

Search period start: 19 July 2019 00:00
Search period end: 29 July 2019 00:00
Orbit: 409 x 418 km, 51.6° (Epoch: 20 July)

Date Brightness Start Highest point End Pass type
(mag) Time Alt. Az. Time Alt. Az. Time Alt. Az.
19 Jul -3.2 01:38:09 10° SSW 01:41:16 37° SE 01:44:23 10° ENE visible
19 Jul -2.0 03:14:54 10° W 03:17:58 33° NNW 03:21:03 10° NE visible
19 Jul -0.7 04:53:08 10° NW 04:55:23 17° N 04:57:37 10° NE visible
19 Jul -1.2 06:30:14 10° NW 06:32:56 22° NNE 06:35:38 10° ENE visible
19 Jul -3.9 08:06:38 10° WNW 08:09:58 88° SSW 08:13:16 10° SE visible
20 Jul -2.8 02:25:19 10° WSW 02:28:35 49° NNW 02:31:51 10° NE visible
20 Jul -0.8 04:03:26 10° NW 04:05:50 18° N 04:08:15 10° NE visible
20 Jul -0.9 05:40:58 10° NW 05:43:25 19° N 05:45:52 10° ENE visible
20 Jul -1.6 07:17:22 10° NW 07:18:35 20° NW 07:18:35 20° NW visible
21 Jul -3.6 01:35:54 10° WSW 01:39:14 81° NNW 01:42:35 10° NE visible
21 Jul -1.1 03:13:40 10° WNW 03:16:19 21° NNW 03:18:57 10° NE visible
21 Jul -0.8 04:51:36 10° NW 04:53:52 17° N 04:56:09 10° NE visible
21 Jul -1.1 06:28:08 10° NW 06:28:59 16° NW 06:28:59 16° NW visible
22 Jul -1.5 02:23:54 10° W 02:26:48 27° NNW 02:29:43 10° NE visible
22 Jul -0.8 04:02:06 10° NW 04:04:18 16° N 04:06:30 10° NE visible
22 Jul -1.2 05:38:54 10° NW 05:40:31 21° NNW 05:40:31 21° NNW visible
23 Jul -2.1 01:34:12 10° W 01:37:20 37° NNW 01:40:29 10° NE visible
23 Jul -0.8 03:12:26 10° NW 03:14:43 17° N 03:17:00 10° NE visible
23 Jul -1.3 04:49:39 10° NW 04:52:17 21° NNE 04:52:21 21° NNE visible
24 Jul -1.0 02:22:40 10° WNW 02:25:08 19° N 02:27:36 10° NE visible
24 Jul -1.1 04:00:19 10° NW 04:02:43 18° N 04:04:18 14° NE visible
24 Jul -0.7 05:36:44 10° NW 05:37:06 13° NW 05:37:06 13° NW visible
25 Jul -1.2 01:32:51 10° WNW 01:35:34 22° NNW 01:38:18 10° NE visible
25 Jul -0.9 03:10:52 10° NW 03:13:07 17° N 03:15:22 10° NE visible
25 Jul -1.3 04:47:27 10° NW 04:49:09 23° NNW 04:49:09 23° NNW visible
26 Jul -0.9 02:21:16 10° NW 02:23:30 16° N 02:25:43 10° NE visible
26 Jul -1.8 03:58:11 10° NW 04:01:01 25° NNE 04:01:14 24° NNE visible
27 Jul -1.0 01:31:32 10° NW 01:33:52 17° N 01:36:12 10° NE visible
27 Jul -1.4 03:08:52 10° NW 03:11:27 20° NNE 03:13:21 13° NE visible
27 Jul -1.0 04:45:15 10° NW 04:46:10 17° NW 04:46:10 17° NW visible
28 Jul -1.2 02:19:28 10° NW 02:21:49 18° N 02:24:11 10° NE visible
28 Jul -2.2 03:55:55 10° NW 03:58:19 35° NNW 03:58:19 35° NNW visible
